Vertical_Velocity
-1 2 0 -3 4 -5 -8 7 8 4 2 0 6 6 2 5 -1 0 5 -3 -0 3 3 2 -3 -1 -1 -2 -4 -1 -1 -1 -6 5 -5 0 -9 -4 0 -4 -5 -5 -4
2 -2 -3 1 6 1 1 0 6 6 3 3 3 -2 -5 0 -3 -3 -3 2 4 3 -3 -7 0 -3 -1 0 -2 -2 -1 2 -3 -7 3 -1 -3 -3 -3 -2 -2 -1 -6
-1 -2 -2 -3 -8 -1 -1 4 1 -1 1 1 1 -2 6 4 -2 0 3 15 12 2 -0 -4 -3 -3 -3 -0 1 0 1 -1 -2 -5 1 -0 -3 -4 -5 -3 -3 -3 -6
4 2 0 1 2 3 2 1 2 0 -0 4 5 -1 -7 16 -3 2 -0 8 2 -1 -1 -2 -1 -0 1 3 1 0 0 0 -0 -4 -3 -1 -4 -0 -5 -5 -1 -4 -4
2 -1 -2 1 1 2 1 1 1 3 1 2 3 -3 5 -9 0 7 21 7 -0 -2 1 2 0 2 2 3 3 3 2 -1 -1 -1 -1 -3 -1 -2 -3 2 -3 -3 1
2 1 0 1 1 -0 -2 -1 1 2 1 -1 1 3 8 3 0 20 -5 -0 2 -1 1 2 2 -1 1 3 1 5 8 5 -5 -2 3 -2 1 -3 -1 -1 -2 -3 -2
-0 0 1 0 -2 -1 -1 -1 0 2 -1 -3 -4 15 1 9 -4 -0 -0 -1 -1 -0 1 1 1 2 -1 2 -3 3 -1 3 5 6 -1 3 -3 0 0 1 -1 -2 -2
-0 -1 -2 -2 -2 -1 0 -0 -1 -2 -2 -1 1 -0 -3 1 -1 -1 -0 -0 -1 0 1 2 -1 0 3 -1 8 -12 7 -1 5 4 -0 2 -4 -1 -1 -0 0 -2 -0
-1 -2 -2 -1 0 -1 -0 1 -1 0 -1 -0 -1 -3 -2 -2 -1 -1 -1 -1 -0 0 1 -1 -1 -1 3 2 3 1 2 2 -5 -2 1 -2 -1 0 1 -3 2 -4 -1
-1 -1 -1 -3 -2 -1 -0 0 0 1 -0 0 2 -0 -2 -3 0 0 -3 -5 -5 -0 3 -1 -2 5 4 -2 -0 -0 -1 10 -3 -10 8 -1 -2 -2 -1 -2 2 -2 -2
-4 -4 -3 -1 -1 -1 -1 -2 -2 -2 -3 -3 -4 -1 1 -2 1 1 1 -2 -6 -5 0 2 3 -1 10 -4 8 -3 -1 15 -0 1 -6 -0 -3 -4 -5 -5 2 -0 -2
-2 -2 -2 -2 -1 -2 -3 -3 -3 -2 -2 0 0 -0 -1 -1 0 2 3 2 2 -11 -6 0 0 2 2 7 -2 7 -0 8 13 -3 3 3 0 -1 -2 -4 -2 -1 -1
-1 -2 -2 -2 -3 -3 -3 -3 -2 -2 -1 -1 -1 -2 -0 -1 -1 -5 4 2 7 -3 2 -3 -2 4 6 2 4 7 11 2 0 -1 -1 3 1 2 -2 -0 -0 -1 -1
-3 -2 -3 -3 -3 -2 -2 -2 -2 -3 -3 -3 -2 -2 -1 -1 -5 -3 -4 -1 2 4 2 4 9 3 5 6 9 1 -1 -3 -1 -1 2 1 3 7 2 1 -2 -2 -2
-2 -2 -2 -1 -1 -2 -1 -2 -2 -0 -1 -1 -2 -2 -2 1 -1 -4 -8 -6 -7 -4 -11 -1 -3 4 -1 4 1 -0 36 27 10 1 3 7 -1 -0 13 3 -1 -1 -2
-0 -1 -1 -2 -2 -2 -3 -5 7 -2 -1 -2 -5 -2 -0 -4 -2 -2 0 -0 -3 -3 -3 -8 -4 -2 -1 -3 -1 1 -3 2 12 -6 28 16 0 -0 13 7 2 -4 -0
-2 -1 -0 0 -1 -1 -0 0 -1 -9 -0 2 -2 -5 -3 -5 -5 -4 -3 -0 -3 0 -3 -3 -2 -1 1 1 -3 5 2 -2 -1 16 17 10 -0 2 -1 6 5 -2 -1
1 1 0 0 -0 -0 -0 -1 -1 -1 0 0 -6 -2 -0 -2 -5 -6 -7 -3 -3 3 -0 -3 -3 -1 1 -1 -1 1 15 1 3 -2 14 3 -5 8 1 -1 2 -3 -1
0 -1 -2 -1 -0 -0 -1 -1 -1 -1 -1 -1 -2 -3 -5 -2 -3 -3 -1 -6 -7 -4 -3 0 -0 -1 0 -0 0 1 1 4 4 1 7 1 1 1 -0 1 3 -2 0
-1 -1 -1 -1 -2 -2 -0 -1 -1 -1 -2 -3 -3 -3 -5 -4 -2 -0 -1 -1 -2 -2 -4 -3 -0 0 -0 -0 1 1 -0 2 2 10 4 2 -0 2 -1 0 3 -3 0
-3 -2 -2 -2 -2 -2 -1 -2 -2 -2 -2 -2 -2 -3 -5 -6 -5 -5 -5 -4 -4 -1 -3 -3 -2 -1 1 1 2 2 1 5 13 4 3 0 1 -0 1 5 2 -1 -1
-1 -2 -3 -2 -2 -3 -3 -3 -2 -2 -1 -2 -1 -3 -1 -2 -3 -3 -3 -4 -3 -3 -4 -3 -3 -3 -1 -1 1 3 2 16 9 16 14 1 -0 0 3 3 2 0 -1
-0 -1 -1 -1 -3 -2 -2 -2 -2 -2 -3 -4 -4 -4 -3 -3 -2 -3 -2 -3 -3 -2 -3 -2 -3 -2 -0 -0 -1 1 4 8 10 -7 7 3 1 -0 4 5 3 1 -0
0 -1 -2 -3 -2 -3 -1 -2 -2 -2 -3 -3 -3 -2 -2 -3 -2 -4 -3 -2 -3 -2 -2 -3 -2 -3 -2 0 2 1 2 2 6 5 1 1 -0 0 2 4 5 3 -2
0 -2 -2 -2 -2 -1 -2 -2 -1 -2 -3 -2 -1 -1 -2 -5 -2 -2 -3 -2 -1 -2 -1 -2 -3 -1 -1 1 1 2 1 4 6 8 3 -0 -0 2 7 8 7 1 -1
-0 -2 -2 -1 -1 -2 -3 -2 -2 -3 -2 -2 -2 -2 -2 -3 -2 -2 -2 -2 -1 -0 -1 -1 -1 -1 -3 -0 1 3 4 5 8 6 1 -0 1 1 3 8 7 2 -0
Height
3114 3115 3115 3115 3114 3112 3111 3111 3110 3108 3106 3104 3100 3096 3096 3093 3094 3091 3089 3085 3081 3078 3075 3072 3068 3064 3060 3055 3051 3049 3045 3041 3037 3035 3031 3026 3018 3014 3010 3005 3000 2994 2988
3109 3109 3110 3109 3108 3107 3106 3104 3103 3101 3098 3096 3093 3091 3089 3087 3085 3082 3080 3074 3071 3068 3066 3063 3060 3055 3051 3047 3043 3040 3037 3034 3030 3026 3022 3018 3012 3007 3002 2997 2992 2986 2981
3105 3104 3104 3103 3103 3101 3099 3097 3095 3092 3090 3088 3086 3082 3082 3079 3078 3074 3070 3067 3065 3061 3058 3053 3050 3045 3042 3039 3036 3033 3030 3026 3021 3017 3014 3009 3005 3000 2994 2989 2984 2979 2974
3098 3098 3097 3096 3095 3093 3090 3088 3085 3083 3081 3079 3077 3075 3073 3070 3067 3065 3061 3060 3056 3053 3049 3045 3040 3037 3035 3033 3029 3026 3022 3018 3014 3010 3005 3002 2997 2993 2987 2982 2978 2973 2968
3093 3091 3090 3088 3086 3084 3081 3078 3075 3073 3071 3070 3068 3066 3063 3062 3058 3054 3054 3050 3047 3043 3040 3036 3031 3029 3027 3024 3021 3018 3014 3010 3006 3002 2997 2994 2990 2985 2980 2976 2971 2967 2962
3086 3084 3083 3080 3077 3075 3072 3070 3068 3066 3063 3061 3059 3058 3053 3052 3049 3047 3045 3041 3037 3034 3030 3026 3022 3020 3018 3015 3012 3009 3006 3002 2998 2994 2990 2987 2983 2978 2973 2969 2964 2961 2958
3078 3076 3073 3071 3069 3066 3064 3062 3060 3057 3055 3053 3051 3048 3046 3043 3041 3038 3035 3031 3027 3024 3021 3017 3014 3011 3008 3005 3001 2998 2995 2992 2989 2986 2982 2979 2975 2971 2966 2962 2958 2955 2951
3069 3067 3065 3063 3060 3058 3055 3053 3051 3048 3047 3045 3042 3039 3037 3035 3032 3030 3026 3021 3018 3015 3012 3008 3005 3002 2998 2994 2991 2986 2984 2981 2979 2977 2973 2971 2967 2963 2958 2955 2952 2948 2945
3062 3060 3058 3055 3053 3050 3048 3046 3043 3041 3038 3036 3034 3031 3029 3026 3024 3021 3017 3012 3008 3006 3002 2998 2995 2990 2988 2984 2980 2976 2973 2969 2968 2966 2963 2961 2958 2955 2951 2947 2944 2941 2938
3055 3052 3050 3047 3045 3042 3040 3038 3036 3033 3031 3029 3026 3023 3020 3018 3015 3012 3007 3001 2998 2994 2991 2986 2982 2979 2975 2972 2968 2965 2962 2960 2958 2954 2953 2951 2949 2946 2943 2939 2937 2934 2931
3046 3044 3041 3038 3036 3034 3032 3030 3028 3025 3023 3020 3018 3015 3012 3009 3007 3002 2997 2991 2986 2981 2978 2974 2970 2966 2964 2959 2956 2952 2950 2951 2947 2944 2941 2940 2938 2936 2934 2931 2929 2927 2924
3038 3035 3033 3031 3029 3027 3024 3022 3019 3017 3014 3012 3009 3007 3004 3000 2997 2992 2987 2980 2975 2968 2964 2959 2955 2952 2948 2945 2941 2939 2938 2937 2936 2933 2932 2931 2929 2928 2926 2924 2921 2920 2917
3030 3028 3026 3024 3021 3019 3017 3015 3012 3010 3007 3004 3001 2997 2993 2990 2986 2981 2977 2971 2966 2957 2950 2944 2939 2934 2930 2927 2926 2925 2925 2923 2922 2921 2920 2921 2920 2920 2918 2917 2915 2913 2911
3022 3020 3018 3016 3014 3012 3010 3008 3005 3002 2999 2995 2991 2988 2983 2979 2972 2967 2961 2955 2949 2942 2934 2928 2922 2916 2913 2911 2910 2909 2909 2909 2909 2909 2909 2910 2910 2910 2909 2909 2907 2906 2904
3014 3013 3011 3009 3007 3005 3002 3000 2996 2993 2990 2986 2982 2977 2972 2966 2960 2952 2944 2936 2928 2921 2913 2909 2903 2899 2894 2893 2892 2893 2894 2894 2895 2897 2897 2899 2899 2899 2900 2900 2900 2899 2897
3007 3006 3004 3002 2999 2997 2994 2990 2990 2985 2980 2976 2971 2966 2961 2955 2947 2939 2930 2922 2914 2906 2901 2895 2890 2886 2881 2879 2879 2879 2880 2883 2882 2883 2884 2887 2889 2890 2892 2892 2892 2892 2891
2999 2998 2996 2994 2992 2989 2986 2984 2980 2975 2972 2968 2963 2957 2951 2944 2935 2927 2918 2910 2902 2896 2889 2883 2878 2874 2871 2869 2869 2869 2869 2871 2872 2872 2873 2877 2879 2880 2882 2883 2884 2884 2885
2992 2990 2988 2986 2983 2980 2977 2974 2970 2966 2962 2957 2951 2945 2938 2930 2921 2912 2905 2898 2892 2885 2879 2873 2868 2863 2860 2858 2858 2859 2861 2861 2861 2863 2865 2868 2870 2871 2873 2875 2876 2877 2878
2984 2982 2980 2977 2975 2971 2968 2964 2960 2956 2951 2945 2939 2932 2924 2917 2908 2901 2894 2887 2881 2875 2869 2864 2859 2854 2851 2849 2848 2848 2850 2851 2853 2853 2855 2859 2862 2864 2866 2867 2869 2870 2872
2976 2974 2971 2969 2966 2963 2959 2955 2950 2945 2940 2934 2927 2920 2913 2906 2898 2891 2884 2878 2871 2866 2860 2855 2850 2846 2842 2840 2839 2839 2839 2842 2844 2845 2847 2851 2854 2856 2859 2860 2862 2863 2865
2967 2965 2963 2960 2957 2953 2949 2945 2940 2934 2929 2922 2915 2907 2900 2894 2887 2881 2875 2868 2863 2857 2852 2848 2843 2838 2835 2832 2832 2832 2833 2835 2837 2838 2841 2844 2846 2848 2851 2853 2855 2857 2859
2959 2956 2954 2950 2947 2943 2938 2934 2929 2923 2917 2911 2904 2897 2890 2884 2878 2872 2866 2861 2856 2851 2845 2840 2837 2831 2828 2825 2825 2825 2826 2828 2829 2832 2835 2838 2840 2842 2845 2847 2849 2851 2854
2951 2947 2944 2940 2936 2932 2927 2922 2917 2911 2906 2899 2893 2887 2881 2875 2870 2864 2859 2854 2849 2845 2840 2835 2830 2826 2822 2820 2818 2817 2819 2821 2823 2824 2828 2831 2833 2836 2839 2841 2844 2846 2849
2941 2938 2934 2930 2926 2920 2916 2911 2905 2900 2894 2888 2882 2876 2871 2866 2861 2856 2851 2847 2843 2838 2834 2829 2824 2820 2816 2814 2813 2812 2812 2814 2817 2820 2822 2824 2826 2829 2831 2835 2838 2841 2844
2931 2927 2923 2919 2914 2909 2905 2900 2894 2889 2883 2878 2872 2867 2862 2857 2853 2848 2843 2838 2834 2831 2827 2823 2818 2814 2811 2809 2807 2806 2806 2808 2810 2813 2816 2818 2820 2823 2825 2829 2833 2836 2839
2921 2916 2912 2907 2903 2898 2893 2888 2883 2878 2873 2867 2862 2857 2853 2848 2844 2839 2834 2829 2825 2822 2819 2816 2812 2808 2806 2804 2802 2801 2801 2802 2804 2807 2809 2812 2814 2816 2819 2823 2827 2831 2834